Marshfield, WI

9:45 AM CDT on June 28, 2017 (GMT -0500)
Marshfield Municipal

Weather History for KMFI - February, 2013

Change the Weather History Date:

Friday, February 1, 2013

  Actual Average Record
Temperature  
Mean Temperature -6 °F -  
Max Temperature 0 °F 25 °F 47 °F (1919)
Min Temperature -13 °F 6 °F -33 °F (1918)
Degree Days  
Heating Degree Days 72    
Moisture  
Dew Point -11 °F    
Average Humidity 70    
Maximum Humidity 83    
Minimum Humidity 54    
Precipitation  
Precipitation 0.00 in - - ()
Sea Level Pressure  
Sea Level Pressure 30.18 in    
Wind  
Wind Speed 8 mph (WSW)    
Max Wind Speed 12 mph    
Max Gust Speed 18 mph    
Visibility 7 miles    
Events Snow    
Averages and records for this station are not official NWS values.
T = Trace of Precipitation, MM = Missing Value Source: NWS Daily Summary

Daily Weather History Graph

Daily Weather History Graph

Search for Another Location

Airport or City:

Trip Planner

Search our weather history database for the weather conditions in past years. The results will help you decide how hot, cold, wet, or windy it might be!

Date:

Astronomy

Feb. 01, 2013 Rise Set
Actual Time 7:19 AM CST 5:10 PM CST
Civil Twilight 6:48 AM CST 5:41 PM CST
Nautical Twilight 6:13 AM CST 6:15 PM CST
Astronomical Twilight 5:39 AM CST 6:50 PM CST
Moon 11:35 PM CST (2/1) 9:36 AM CST (2/1)
Length of Visible Light 10h 52m
Length of Day
9h 50m
Waning Gibbous, 70% of the Moon is Illuminated
Feb 1
Waning Gibbous
Feb 3
Last Quarter
Feb 10
New
Feb 17
First Quarter
Feb 25
Full

Hourly Weather History & Observations

Time (CST) Temp. Windchill Dew Point Humidity Pressure Visibility Wind Dir Wind Speed Gust Speed Precip Events Conditions
12:29 AM -4.0 °F -19.0 °F -9.4 °F 78% 30.07 in 10.0 mi West 8.1 mph - N/A   Mostly Cloudy
12:54 AM -4.0 °F -19.0 °F -9.9 °F 76% 30.19 in 10.0 mi West 8.1 mph - N/A   Overcast
2:02 AM -5.8 °F -22.4 °F -11.2 °F 77% 30.10 in 10.0 mi West 9.2 mph - N/A   Partly Cloudy
2:54 AM -7.1 °F -25.0 °F -13.0 °F 75% 30.23 in 10.0 mi West 10.4 mph - N/A   Clear
5:54 AM -11.9 °F -29.9 °F -18.0 °F 74% 30.29 in 10.0 mi West 9.2 mph - N/A   Clear
6:54 AM -13.0 °F -31.3 °F -20.0 °F 71% 30.30 in 10.0 mi West 9.2 mph - N/A   Clear
8:54 AM -11.9 °F -32.0 °F -20.0 °F 67% 30.32 in 10.0 mi WNW 11.5 mph 18.4 mph N/A   Clear
9:54 AM -11.0 °F -28.8 °F -18.9 °F 68% 30.31 in 10.0 mi WNW 9.2 mph - N/A   Clear
10:54 AM -9.9 °F -24.9 °F -18.0 °F 68% 30.31 in 10.0 mi West 6.9 mph - N/A   Clear
12:54 PM -5.1 °F -22.5 °F -16.1 °F 59% 30.27 in 10.0 mi West 10.4 mph - N/A   Clear
1:54 PM -2.0 °F -17.7 °F -14.1 °F 57% 30.25 in 10.0 mi WSW 9.2 mph - N/A   Clear
2:54 PM -0.9 °F -18.3 °F -14.1 °F 54% 30.24 in 10.0 mi West 11.5 mph - N/A   Clear
3:54 PM -0.9 °F -15.3 °F -13.0 °F 57% 30.22 in 10.0 mi West 8.1 mph - N/A   Clear
4:54 PM -0.0 °F -13.0 °F -11.9 °F 57% 30.20 in 10.0 mi West 6.9 mph - N/A   Clear
5:54 PM -0.0 °F -11.6 °F -11.9 °F 57% 30.20 in 10.0 mi West 5.8 mph - N/A   Overcast
6:54 PM -0.0 °F -11.6 °F -11.0 °F 60% 30.21 in 10.0 mi WSW 5.8 mph - N/A   Overcast
7:46 PM -0.4 °F -12.0 °F -7.6 °F 72% 30.08 in 2.5 mi WSW 5.8 mph - 0.00 in Snow Light Snow
7:54 PM -0.0 °F -13.0 °F -8.0 °F 69% 30.20 in 3.0 mi WSW 6.9 mph - 0.00 in Snow Light Snow
8:09 PM -0.4 °F -14.7 °F -7.6 °F 72% 30.07 in 2.5 mi SW 8.1 mph - 0.00 in Snow Light Snow
8:31 PM -0.4 °F -12.0 °F -7.6 °F 72% 30.06 in 4.0 mi SW 5.8 mph - 0.00 in Snow Light Snow
8:50 PM -0.4 °F -8.3 °F -7.6 °F 72% 30.06 in 2.0 mi WSW 3.5 mph - 0.00 in Snow Light Snow
8:54 PM -0.0 °F -11.6 °F -6.0 °F 76% 30.19 in 1.8 mi SW 5.8 mph - 0.00 in Snow Light Snow
9:10 PM -0.4 °F -12.0 °F -5.8 °F 78% 30.06 in 2.5 mi SW 5.8 mph - 0.00 in Snow Light Snow
9:18 PM -0.4 °F -12.0 °F -5.8 °F 78% 30.06 in 4.0 mi SW 5.8 mph - 0.00 in Snow Light Snow
9:54 PM -0.0 °F -7.9 °F -5.1 °F 79% 30.18 in 3.0 mi SW 3.5 mph - 0.00 in Snow Light Snow
10:54 PM -0.0 °F -9.9 °F -5.1 °F 79% 30.17 in 3.0 mi SW 4.6 mph - 0.00 in Snow Light Snow
11:54 PM -0.0 °F -7.9 °F -4.0 °F 83% 30.15 in 3.0 mi SW 3.5 mph - 0.00 in Snow Light Snow